contact:dominique.lefevre@mio.osupytheas.fr, maurice.libes@osupytheas.fr, didier.mallarino@osupytheas.fr
Project:EMSO http://www.emso-fr.org/EMSO-France
Depth: 2436.0 m
Title:EMSO Ligure Ouest : Data MII capteur MICROCAT
DateTime_Computer,Latitude,Longitude,Temperature,Conductivity,Pressure,DateTime_Instrument
DateTime_Computer,Latitude,Longitude,degC,S m-1,dbar,DateTime_Instrument
2022-12-16T00:00:20Z,42.805,6.029,13.3011,4.60070,2470.6,2022-12-16T02:06:11Z
2022-12-16T00:03:23Z,42.805,6.029,13.3011,4.60067,2470.646,2022-12-16T02:09:14Z
2022-12-16T00:06:26Z,42.805,6.029,13.3014,4.60072,2470.6,2022-12-16T02:12:17Z
2022-12-16T00:09:29Z,42.805,6.029,13.3016,4.60064,2470.6,2022-12-16T02:15:20Z
2022-12-16T00:12:32Z,42.805,6.029,13.3012,4.60065,2470.6,2022-12-16T02:18:23Z
2022-12-16T00:15:35Z,42.805,6.029,13.3011,4.60062,2470.614,2022-12-16T02:21:26Z
2022-12-16T00:18:38Z,42.805,6.029,13.3010,4.60067,2470.637,2022-12-16T02:24:29Z
2022-12-16T00:21:41Z,42.805,6.029,13.3014,4.60063,2470.646,2022-12-16T02:27:32Z
2022-12-16T00:24:44Z,42.805,6.029,13.3014,4.60067,2470.661,2022-12-16T02:30:35Z
2022-12-16T00:27:47Z,42.805,6.029,13.3011,4.60064,2470.6,2022-12-16T02:33:39Z
2022-12-16T00:30:51Z,42.805,6.029,13.3014,4.60067,2470.6,2022-12-16T02:36:42Z
2022-12-16T00:33:54Z,42.805,6.029,13.3015,4.60069,2470.637,2022-12-16T02:39:45Z
2022-12-16T00:36:57Z,42.805,6.029,13.3011,4.60064,2470.6,2022-12-16T02:42:48Z
2022-12-16T00:40:00Z,42.805,6.029,13.3012,4.60064,2470.624,2022-12-16T02:45:51Z
2022-12-16T00:43:03Z,42.805,6.029,13.3011,4.60064,2470.6,2022-12-16T02:48:54Z
2022-12-16T00:46:06Z,42.805,6.029,13.3009,4.60063,2470.646,2022-12-16T02:51:57Z
2022-12-16T00:49:09Z,42.805,6.029,13.3014,4.60069,2470.6,2022-12-16T02:55:00Z
2022-12-16T00:52:12Z,42.805,6.029,13.3013,4.60064,2470.624,2022-12-16T02:58:03Z
2022-12-16T00:55:15Z,42.805,6.029,13.3011,4.60069,2470.624,2022-12-16T03:01:06Z
2022-12-16T00:58:18Z,42.805,6.029,13.3014,4.60062,2470.637,2022-12-16T03:04:09Z
2022-12-16T01:01:21Z,42.805,6.029,13.3010,4.60063,2470.637,2022-12-16T03:07:13Z
2022-12-16T01:04:25Z,42.805,6.029,13.3014,4.60067,2470.6,2022-12-16T03:10:16Z
2022-12-16T01:07:28Z,42.805,6.029,13.3014,4.60068,2470.624,2022-12-16T03:13:19Z
2022-12-16T01:10:31Z,42.805,6.029,13.3014,4.60067,2470.661,2022-12-16T03:16:22Z
2022-12-16T01:13:34Z,42.805,6.029,13.3009,4.60064,2470.6,2022-12-16T03:19:25Z
2022-12-16T01:16:37Z,42.805,6.029,13.3012,4.60062,2470.624,2022-12-16T03:22:28Z
2022-12-16T01:19:40Z,42.805,6.029,13.3012,4.60063,2470.624,2022-12-16T03:25:31Z
2022-12-16T01:22:43Z,42.805,6.029,13.3015,4.60064,2470.6,2022-12-16T03:28:34Z
2022-12-16T01:25:46Z,42.805,6.029,13.3014,4.60069,2470.624,2022-12-16T03:31:37Z
2022-12-16T01:28:49Z,42.805,6.029,13.3015,4.60064,2470.624,2022-12-16T03:34:40Z
2022-12-16T01:31:52Z,42.805,6.029,13.3012,4.60062,2470.624,2022-12-16T03:37:43Z
2022-12-16T01:34:55Z,42.805,6.029,13.3013,4.60067,2470.6,2022-12-16T03:40:47Z
2022-12-16T01:37:58Z,42.805,6.029,13.3013,4.60064,2470.624,2022-12-16T03:43:50Z
2022-12-16T01:41:02Z,42.805,6.029,13.3014,4.60064,2470.6,2022-12-16T03:46:53Z
2022-12-16T01:44:05Z,42.805,6.029,13.3015,4.60067,2470.637,2022-12-16T03:49:56Z
2022-12-16T01:47:08Z,42.805,6.029,13.3014,4.60064,2470.661,2022-12-16T03:52:59Z
2022-12-16T01:50:11Z,42.805,6.029,13.3013,4.60068,2470.6,2022-12-16T03:56:02Z
2022-12-16T01:53:14Z,42.805,6.029,13.3014,4.60067,2470.614,2022-12-16T03:59:05Z
2022-12-16T01:56:17Z,42.805,6.029,13.3012,4.60062,2470.614,2022-12-16T04:02:08Z
2022-12-16T01:59:20Z,42.805,6.029,13.3016,4.60067,2470.614,2022-12-16T04:05:11Z
2022-12-16T02:02:23Z,42.805,6.029,13.3011,4.60064,2470.614,2022-12-16T04:08:14Z
2022-12-16T02:05:26Z,42.805,6.029,13.3015,4.60063,2470.6,2022-12-16T04:11:17Z
2022-12-16T02:08:29Z,42.805,6.029,13.3009,4.60065,2470.637,2022-12-16T04:14:20Z
2022-12-16T02:11:32Z,42.805,6.029,13.3013,4.60065,2470.577,2022-12-16T04:17:24Z
2022-12-16T02:14:35Z,42.805,6.029,13.3013,4.60064,2470.6,2022-12-16T04:20:27Z
2022-12-16T02:17:39Z,42.805,6.029,13.3014,4.60063,2470.6,2022-12-16T04:23:30Z
2022-12-16T02:20:42Z,42.805,6.029,13.3015,4.60066,2470.6,2022-12-16T04:26:33Z
2022-12-16T02:23:45Z,42.805,6.029,13.3011,4.60063,2470.591,2022-12-16T04:29:36Z
2022-12-16T02:26:48Z,42.805,6.029,13.3013,4.60064,2470.6,2022-12-16T04:32:39Z
2022-12-16T02:29:51Z,42.805,6.029,13.3016,4.60069,2470.624,2022-12-16T04:35:42Z
2022-12-16T02:32:54Z,42.805,6.029,13.3014,4.60070,2470.624,2022-12-16T04:38:45Z
2022-12-16T02:35:57Z,42.805,6.029,13.3012,4.60067,2470.6,2022-12-16T04:41:48Z
2022-12-16T02:39:00Z,42.805,6.029,13.3014,4.60066,2470.577,2022-12-16T04:44:51Z
2022-12-16T02:42:03Z,42.805,6.029,13.3012,4.60063,2470.6,2022-12-16T04:47:54Z
2022-12-16T02:45:06Z,42.805,6.029,13.3014,4.60065,2470.591,2022-12-16T04:50:58Z
2022-12-16T02:48:09Z,42.805,6.029,13.3016,4.60063,2470.614,2022-12-16T04:54:01Z
2022-12-16T02:51:13Z,42.805,6.029,13.3012,4.60061,2470.624,2022-12-16T04:57:04Z
2022-12-16T02:54:16Z,42.805,6.029,13.3011,4.60066,2470.591,2022-12-16T05:00:07Z
2022-12-16T02:57:19Z,42.805,6.029,13.3014,4.60069,2470.6,2022-12-16T05:03:10Z
2022-12-16T03:00:22Z,42.805,6.029,13.3012,4.60064,2470.591,2022-12-16T05:06:13Z
2022-12-16T03:03:25Z,42.805,6.029,13.3010,4.60063,2470.591,2022-12-16T05:09:16Z
2022-12-16T03:06:28Z,42.805,6.029,13.3011,4.60064,2470.591,2022-12-16T05:12:19Z
2022-12-16T03:09:31Z,42.805,6.029,13.3014,4.60063,2470.6,2022-12-16T05:15:22Z
2022-12-16T03:12:34Z,42.805,6.029,13.3012,4.60062,2470.53,2022-12-16T05:18:25Z
2022-12-16T03:15:37Z,42.805,6.029,13.3009,4.60067,2470.614,2022-12-16T05:21:28Z
2022-12-16T03:18:40Z,42.805,6.029,13.3011,4.60066,2470.614,2022-12-16T05:24:32Z
2022-12-16T03:21:43Z,42.805,6.029,13.3013,4.60062,2470.6,2022-12-16T05:27:35Z
2022-12-16T03:24:46Z,42.805,6.029,13.3011,4.60064,2470.6,2022-12-16T05:30:38Z
2022-12-16T03:27:50Z,42.805,6.029,13.3014,4.60061,2470.614,2022-12-16T05:33:41Z
2022-12-16T03:30:53Z,42.805,6.029,13.3013,4.60067,2470.614,2022-12-16T05:36:44Z
2022-12-16T03:33:56Z,42.805,6.029,13.3012,4.60063,2470.591,2022-12-16T05:39:47Z
2022-12-16T03:36:59Z,42.805,6.029,13.3011,4.60062,2470.577,2022-12-16T05:42:50Z
2022-12-16T03:40:02Z,42.805,6.029,13.3007,4.60062,2470.553,2022-12-16T05:45:53Z
2022-12-16T03:43:05Z,42.805,6.029,13.3008,4.60065,2470.624,2022-12-16T05:48:56Z
2022-12-16T03:46:08Z,42.805,6.029,13.3010,4.60066,2470.614,2022-12-16T05:51:59Z
2022-12-16T03:49:11Z,42.805,6.029,13.3011,4.60067,2470.563,2022-12-16T05:55:02Z
2022-12-16T03:52:14Z,42.805,6.029,13.3011,4.60064,2470.614,2022-12-16T05:58:06Z
2022-12-16T03:55:17Z,42.805,6.029,13.3013,4.60066,2470.624,2022-12-16T06:01:09Z
2022-12-16T03:58:20Z,42.805,6.029,13.3014,4.60064,2470.577,2022-12-16T06:04:12Z
2022-12-16T04:01:24Z,42.805,6.029,13.3012,4.60064,2470.577,2022-12-16T06:07:15Z
2022-12-16T04:04:27Z,42.805,6.029,13.3012,4.60063,2470.577,2022-12-16T06:10:18Z
2022-12-16T04:07:30Z,42.805,6.029,13.3011,4.60062,2470.614,2022-12-16T06:13:21Z
2022-12-16T04:10:33Z,42.805,6.029,13.3010,4.60065,2470.553,2022-12-16T06:16:24Z
2022-12-16T04:13:36Z,42.805,6.029,13.3014,4.60063,2470.577,2022-12-16T06:19:27Z
2022-12-16T04:16:39Z,42.805,6.029,13.3010,4.60063,2470.6,2022-12-16T06:22:30Z
2022-12-16T04:19:42Z,42.805,6.029,13.3012,4.60065,2470.591,2022-12-16T06:25:33Z
2022-12-16T04:22:45Z,42.805,6.029,13.3009,4.60062,2470.577,2022-12-16T06:28:36Z
2022-12-16T04:25:48Z,42.805,6.029,13.3014,4.60062,2470.567,2022-12-16T06:31:39Z
2022-12-16T04:28:51Z,42.805,6.029,13.3014,4.60064,2470.553,2022-12-16T06:34:43Z
2022-12-16T04:31:54Z,42.805,6.029,13.3013,4.60064,2470.553,2022-12-16T06:37:46Z
2022-12-16T04:34:58Z,42.805,6.029,13.3012,4.60063,2470.6,2022-12-16T06:40:49Z
2022-12-16T04:38:01Z,42.805,6.029,13.3012,4.60064,2470.6,2022-12-16T06:43:52Z
2022-12-16T04:41:04Z,42.805,6.029,13.3011,4.60064,2470.553,2022-12-16T06:46:55Z
2022-12-16T04:44:07Z,42.805,6.029,13.3012,4.60064,2470.591,2022-12-16T06:49:58Z
2022-12-16T04:47:10Z,42.805,6.029,13.3015,4.60065,2470.553,2022-12-16T06:53:01Z
2022-12-16T04:50:13Z,42.805,6.029,13.3013,4.60064,2470.577,2022-12-16T06:56:04Z
2022-12-16T04:53:16Z,42.805,6.029,13.3010,4.60067,2470.577,2022-12-16T06:59:07Z
2022-12-16T04:56:19Z,42.805,6.029,13.3014,4.60063,2470.567,2022-12-16T07:02:10Z
2022-12-16T04:59:22Z,42.805,6.029,13.3009,4.60062,2470.553,2022-12-16T07:05:13Z
2022-12-16T05:02:25Z,42.805,6.029,13.3013,4.60064,2470.591,2022-12-16T07:08:17Z
2022-12-16T05:05:28Z,42.805,6.029,13.3011,4.60064,2470.614,2022-12-16T07:11:20Z
2022-12-16T05:08:31Z,42.805,6.029,13.3011,4.60063,2470.553,2022-12-16T07:14:23Z
2022-12-16T05:11:35Z,42.805,6.029,13.3008,4.60063,2470.553,2022-12-16T07:17:26Z
2022-12-16T05:14:38Z,42.805,6.029,13.3014,4.60065,2470.553,2022-12-16T07:20:29Z
2022-12-16T05:17:41Z,42.805,6.029,13.3011,4.60064,2470.553,2022-12-16T07:23:32Z
2022-12-16T05:20:44Z,42.805,6.029,13.3009,4.60065,2470.577,2022-12-16T07:26:35Z
2022-12-16T05:23:47Z,42.805,6.029,13.3014,4.60067,2470.591,2022-12-16T07:29:38Z
2022-12-16T05:26:50Z,42.805,6.029,13.3011,4.60067,2470.577,2022-12-16T07:32:41Z
2022-12-16T05:29:53Z,42.805,6.029,13.3014,4.60064,2470.539,2022-12-16T07:35:44Z
2022-12-16T05:32:56Z,42.805,6.029,13.3011,4.60062,2470.553,2022-12-16T07:38:47Z
2022-12-16T05:35:59Z,42.805,6.029,13.3014,4.60064,2470.591,2022-12-16T07:41:51Z
2022-12-16T05:39:02Z,42.805,6.029,13.3009,4.60065,2470.591,2022-12-16T07:44:54Z
2022-12-16T05:42:05Z,42.805,6.029,13.3014,4.60064,2470.577,2022-12-16T07:47:57Z
2022-12-16T05:45:08Z,42.805,6.029,13.3009,4.60064,2470.577,2022-12-16T07:51:00Z
2022-12-16T05:48:12Z,42.805,6.029,13.3011,4.60062,2470.6,2022-12-16T07:54:03Z
2022-12-16T05:51:15Z,42.805,6.029,13.3013,4.60066,2470.577,2022-12-16T07:57:06Z
2022-12-16T05:54:18Z,42.805,6.029,13.3012,4.60064,2470.577,2022-12-16T08:00:09Z
2022-12-16T05:57:21Z,42.805,6.029,13.3018,4.60069,2470.577,2022-12-16T08:03:12Z
2022-12-16T06:00:24Z,42.805,6.029,13.3010,4.60064,2470.553,2022-12-16T08:06:15Z
2022-12-16T06:03:27Z,42.805,6.029,13.3010,4.60064,2470.577,2022-12-16T08:09:18Z
2022-12-16T06:06:30Z,42.805,6.029,13.3012,4.60064,2470.577,2022-12-16T08:12:21Z
2022-12-16T06:09:33Z,42.805,6.029,13.3015,4.60064,2470.614,2022-12-16T08:15:24Z
2022-12-16T06:12:36Z,42.805,6.029,13.3010,4.60064,2470.577,2022-12-16T08:18:28Z
2022-12-16T06:15:39Z,42.805,6.029,13.3011,4.60064,2470.577,2022-12-16T08:21:31Z
2022-12-16T06:18:42Z,42.805,6.029,13.3012,4.60066,2470.577,2022-12-16T08:24:34Z
2022-12-16T06:21:46Z,42.805,6.029,13.3014,4.60064,2470.553,2022-12-16T08:27:37Z
2022-12-16T06:24:49Z,42.805,6.029,13.3010,4.60064,2470.577,2022-12-16T08:30:40Z
2022-12-16T06:27:52Z,42.805,6.029,13.3012,4.60067,2470.614,2022-12-16T08:33:43Z
2022-12-16T06:30:55Z,42.805,6.029,13.3011,4.60067,2470.577,2022-12-16T08:36:46Z
2022-12-16T06:33:58Z,42.805,6.029,13.3013,4.60063,2470.577,2022-12-16T08:39:49Z
2022-12-16T06:37:01Z,42.805,6.029,13.3010,4.60064,2470.553,2022-12-16T08:42:52Z
2022-12-16T06:40:04Z,42.805,6.029,13.3009,4.60064,2470.553,2022-12-16T08:45:55Z
2022-12-16T06:43:07Z,42.805,6.029,13.3011,4.60063,2470.577,2022-12-16T08:48:58Z
2022-12-16T06:46:10Z,42.805,6.029,13.3013,4.60063,2470.577,2022-12-16T08:52:02Z
2022-12-16T06:49:13Z,42.805,6.029,13.3010,4.60063,2470.577,2022-12-16T08:55:05Z
2022-12-16T06:52:16Z,42.805,6.029,13.3009,4.60065,2470.591,2022-12-16T08:58:08Z
2022-12-16T06:55:19Z,42.805,6.029,13.3014,4.60064,2470.614,2022-12-16T09:01:11Z
2022-12-16T06:58:23Z,42.805,6.029,13.3009,4.60062,2470.577,2022-12-16T09:04:14Z
2022-12-16T07:01:26Z,42.805,6.029,13.3009,4.60064,2470.577,2022-12-16T09:07:17Z
2022-12-16T07:04:29Z,42.805,6.029,13.3009,4.60064,2470.586,2022-12-16T09:10:20Z
2022-12-16T07:07:32Z,42.805,6.029,13.3012,4.60064,2470.577,2022-12-16T09:13:23Z
2022-12-16T07:10:35Z,42.805,6.029,13.3011,4.60064,2470.591,2022-12-16T09:16:26Z
2022-12-16T07:13:38Z,42.805,6.029,13.3009,4.60064,2470.577,2022-12-16T09:19:29Z
2022-12-16T07:16:41Z,42.805,6.029,13.3013,4.60062,2470.544,2022-12-16T09:22:32Z
2022-12-16T07:19:44Z,42.805,6.029,13.3014,4.60064,2470.577,2022-12-16T09:25:36Z
2022-12-16T07:22:47Z,42.805,6.029,13.3012,4.60064,2470.6,2022-12-16T09:28:39Z
2022-12-16T07:25:50Z,42.805,6.029,13.3013,4.60064,2470.591,2022-12-16T09:31:42Z
2022-12-16T07:28:53Z,42.805,6.029,13.3010,4.60062,2470.614,2022-12-16T09:34:45Z
2022-12-16T07:31:57Z,42.805,6.029,13.3009,4.60064,2470.577,2022-12-16T09:37:48Z
2022-12-16T07:35:00Z,42.805,6.029,13.3010,4.60066,2470.577,2022-12-16T09:40:51Z
2022-12-16T07:38:03Z,42.805,6.029,13.3012,4.60066,2470.6,2022-12-16T09:43:54Z
2022-12-16T07:41:06Z,42.805,6.029,13.3015,4.60065,2470.614,2022-12-16T09:46:57Z
2022-12-16T07:44:09Z,42.805,6.029,13.3012,4.60064,2470.53,2022-12-16T09:50:00Z
2022-12-16T07:47:12Z,42.805,6.029,13.3008,4.60063,2470.591,2022-12-16T09:53:03Z
2022-12-16T07:50:15Z,42.805,6.029,13.3017,4.60063,2470.577,2022-12-16T09:56:06Z
2022-12-16T07:53:18Z,42.805,6.029,13.3011,4.60064,2470.6,2022-12-16T09:59:09Z
2022-12-16T07:56:21Z,42.805,6.029,13.3014,4.60064,2470.591,2022-12-16T10:02:13Z
2022-12-16T07:59:24Z,42.805,6.029,13.3014,4.60064,2470.6,2022-12-16T10:05:16Z
2022-12-16T08:02:27Z,42.805,6.029,13.3015,4.60067,2470.577,2022-12-16T10:08:19Z
2022-12-16T08:05:30Z,42.805,6.029,13.3012,4.60064,2470.614,2022-12-16T10:11:22Z
2022-12-16T08:08:34Z,42.805,6.029,13.3013,4.60065,2470.577,2022-12-16T10:14:25Z
2022-12-16T08:11:37Z,42.805,6.029,13.3014,4.60064,2470.6,2022-12-16T10:17:28Z
2022-12-16T08:14:40Z,42.805,6.029,13.3012,4.60062,2470.624,2022-12-16T10:20:31Z
2022-12-16T08:17:43Z,42.805,6.029,13.3014,4.60063,2470.6,2022-12-16T10:23:34Z
2022-12-16T08:20:46Z,42.805,6.029,13.3012,4.60064,2470.624,2022-12-16T10:26:37Z
2022-12-16T08:23:49Z,42.805,6.029,13.3015,4.60064,2470.6,2022-12-16T10:29:40Z
2022-12-16T08:26:52Z,42.805,6.029,13.3014,4.60063,2470.6,2022-12-16T10:32:43Z
2022-12-16T08:29:55Z,42.805,6.029,13.3014,4.60067,2470.6,2022-12-16T10:35:47Z
2022-12-16T08:32:58Z,42.805,6.029,13.3013,4.60063,2470.6,2022-12-16T10:38:50Z
2022-12-16T08:36:01Z,42.805,6.029,13.3015,4.60064,2470.637,2022-12-16T10:41:53Z
2022-12-16T08:39:04Z,42.805,6.029,13.3011,4.60063,2470.624,2022-12-16T10:44:56Z
2022-12-16T08:42:08Z,42.805,6.029,13.3010,4.60064,2470.624,2022-12-16T10:47:59Z
2022-12-16T08:45:11Z,42.805,6.029,13.3014,4.60063,2470.624,2022-12-16T10:51:02Z
2022-12-16T08:48:14Z,42.805,6.029,13.3015,4.60063,2470.661,2022-12-16T10:54:05Z
2022-12-16T08:51:17Z,42.805,6.029,13.3012,4.60065,2470.614,2022-12-16T10:57:08Z
2022-12-16T08:54:20Z,42.805,6.029,13.3014,4.60064,2470.6,2022-12-16T11:00:11Z
2022-12-16T08:57:23Z,42.805,6.029,13.3011,4.60063,2470.6,2022-12-16T11:03:14Z
2022-12-16T09:00:26Z,42.805,6.029,13.3015,4.60063,2470.614,2022-12-16T11:06:17Z
2022-12-16T09:03:29Z,42.805,6.029,13.3012,4.60064,2470.637,2022-12-16T11:09:21Z
2022-12-16T09:06:32Z,42.805,6.029,13.3012,4.60063,2470.637,2022-12-16T11:12:24Z
2022-12-16T09:09:35Z,42.805,6.029,13.3009,4.60064,2470.624,2022-12-16T11:15:27Z
2022-12-16T09:12:38Z,42.805,6.029,13.3013,4.60064,2470.67,2022-12-16T11:18:30Z
2022-12-16T09:15:42Z,42.805,6.029,13.3012,4.60063,2470.646,2022-12-16T11:21:33Z
2022-12-16T09:18:45Z,42.805,6.029,13.3011,4.60064,2470.646,2022-12-16T11:24:36Z
2022-12-16T09:21:48Z,42.805,6.029,13.3011,4.60064,2470.67,2022-12-16T11:27:39Z
2022-12-16T09:24:51Z,42.805,6.029,13.3014,4.60063,2470.67,2022-12-16T11:30:42Z
2022-12-16T09:27:54Z,42.805,6.029,13.3014,4.60063,2470.684,2022-12-16T11:33:45Z
2022-12-16T09:30:57Z,42.805,6.029,13.3014,4.60063,2470.661,2022-12-16T11:36:48Z
2022-12-16T09:34:00Z,42.805,6.029,13.3008,4.60064,2470.633,2022-12-16T11:39:52Z
2022-12-16T09:37:03Z,42.805,6.029,13.3011,4.60062,2470.67,2022-12-16T11:42:55Z
2022-12-16T09:40:06Z,42.805,6.029,13.3014,4.60067,2470.693,2022-12-16T11:45:58Z
2022-12-16T09:43:09Z,42.805,6.029,13.3011,4.60064,2470.684,2022-12-16T11:49:01Z
2022-12-16T09:46:12Z,42.805,6.029,13.3014,4.60064,2470.646,2022-12-16T11:52:04Z
2022-12-16T09:49:16Z,42.805,6.029,13.3015,4.60062,2470.661,2022-12-16T11:55:07Z
2022-12-16T09:52:19Z,42.805,6.029,13.3011,4.60064,2470.67,2022-12-16T11:58:10Z
2022-12-16T09:55:22Z,42.805,6.029,13.3014,4.60065,2470.67,2022-12-16T12:01:13Z
2022-12-16T09:58:25Z,42.805,6.029,13.3011,4.60064,2470.67,2022-12-16T12:04:16Z
2022-12-16T10:01:28Z,42.805,6.029,13.3013,4.60063,2470.646,2022-12-16T12:07:19Z
2022-12-16T10:04:31Z,42.805,6.029,13.3012,4.60062,2470.661,2022-12-16T12:10:22Z
2022-12-16T10:07:34Z,42.805,6.029,13.3009,4.60064,2470.646,2022-12-16T12:13:25Z
2022-12-16T10:10:37Z,42.805,6.029,13.3011,4.60063,2470.693,2022-12-16T12:16:29Z
2022-12-16T10:13:40Z,42.805,6.029,13.3014,4.60063,2470.684,2022-12-16T12:19:32Z
2022-12-16T10:16:43Z,42.805,6.029,13.3014,4.60065,2470.646,2022-12-16T12:22:35Z
2022-12-16T10:19:46Z,42.805,6.029,13.3012,4.60063,2470.684,2022-12-16T12:25:38Z
2022-12-16T10:22:50Z,42.805,6.029,13.3014,4.60063,2470.693,2022-12-16T12:28:41Z
2022-12-16T10:25:53Z,42.805,6.029,13.3013,4.60064,2470.693,2022-12-16T12:31:44Z
2022-12-16T10:28:56Z,42.805,6.029,13.3010,4.60064,2470.717,2022-12-16T12:34:47Z
2022-12-16T10:31:59Z,42.805,6.029,13.3012,4.60063,2470.67,2022-12-16T12:37:50Z
2022-12-16T10:35:02Z,42.805,6.029,13.3011,4.60063,2470.684,2022-12-16T12:40:53Z
2022-12-16T10:38:05Z,42.805,6.029,13.3012,4.60063,2470.693,2022-12-16T12:43:56Z
2022-12-16T10:41:08Z,42.805,6.029,13.3011,4.60063,2470.707,2022-12-16T12:47:00Z
2022-12-16T10:44:11Z,42.805,6.029,13.3015,4.60062,2470.73,2022-12-16T12:50:03Z
2022-12-16T10:47:14Z,42.805,6.029,13.3011,4.60064,2470.693,2022-12-16T12:53:06Z
2022-12-16T10:50:17Z,42.805,6.029,13.3012,4.60062,2470.67,2022-12-16T12:56:09Z
2022-12-16T10:53:20Z,42.805,6.029,13.3015,4.60063,2470.73,2022-12-16T12:59:12Z
2022-12-16T10:56:23Z,42.805,6.029,13.3011,4.60062,2470.67,2022-12-16T13:02:15Z
2022-12-16T10:59:27Z,42.805,6.029,13.3014,4.60062,2470.693,2022-12-16T13:05:18Z
2022-12-16T11:02:30Z,42.805,6.029,13.3008,4.60064,2470.74,2022-12-16T13:08:21Z
2022-12-16T11:05:33Z,42.805,6.029,13.3013,4.60064,2470.693,2022-12-16T13:11:24Z
2022-12-16T11:08:36Z,42.805,6.029,13.3014,4.60064,2470.693,2022-12-16T13:14:27Z
2022-12-16T11:11:39Z,42.805,6.029,13.3010,4.60062,2470.693,2022-12-16T13:17:30Z
2022-12-16T11:14:42Z,42.805,6.029,13.3013,4.60062,2470.693,2022-12-16T13:20:34Z
2022-12-16T11:17:45Z,42.805,6.029,13.3011,4.60062,2470.693,2022-12-16T13:23:37Z
2022-12-16T11:20:48Z,42.805,6.029,13.3011,4.60062,2470.73,2022-12-16T13:26:40Z
2022-12-16T11:23:51Z,42.805,6.029,13.3012,4.60062,2470.73,2022-12-16T13:29:43Z
2022-12-16T11:26:54Z,42.805,6.029,13.3011,4.60063,2470.717,2022-12-16T13:32:46Z
2022-12-16T11:29:57Z,42.805,6.029,13.3012,4.60063,2470.693,2022-12-16T13:35:49Z
2022-12-16T11:33:01Z,42.805,6.029,13.3010,4.60063,2470.717,2022-12-16T13:38:52Z
2022-12-16T11:36:04Z,42.805,6.029,13.3012,4.60062,2470.693,2022-12-16T13:41:55Z
2022-12-16T11:39:07Z,42.805,6.029,13.3009,4.60064,2470.763,2022-12-16T13:44:58Z
2022-12-16T11:42:10Z,42.805,6.029,13.3013,4.60064,2470.693,2022-12-16T13:48:01Z
2022-12-16T11:45:13Z,42.805,6.029,13.3010,4.60062,2470.717,2022-12-16T13:51:04Z
2022-12-16T11:48:16Z,42.805,6.029,13.3012,4.60062,2470.717,2022-12-16T13:54:08Z
2022-12-16T11:51:19Z,42.805,6.029,13.3011,4.60063,2470.693,2022-12-16T13:57:11Z
2022-12-16T11:54:22Z,42.805,6.029,13.3009,4.60062,2470.693,2022-12-16T14:00:14Z
2022-12-16T11:57:25Z,42.805,6.029,13.3010,4.60062,2470.73,2022-12-16T14:03:17Z
2022-12-16T12:00:28Z,42.805,6.029,13.3011,4.60064,2470.73,2022-12-16T14:06:20Z
2022-12-16T12:03:31Z,42.805,6.029,13.3012,4.60063,2470.707,2022-12-16T14:09:23Z
2022-12-16T12:06:35Z,42.805,6.029,13.3013,4.60063,2470.693,2022-12-16T14:12:26Z
2022-12-16T12:09:38Z,42.805,6.029,13.3011,4.60062,2470.73,2022-12-16T14:15:29Z
2022-12-16T12:12:41Z,42.805,6.029,13.3012,4.60061,2470.717,2022-12-16T14:18:32Z
2022-12-16T12:15:44Z,42.805,6.029,13.3014,4.60062,2470.717,2022-12-16T14:21:35Z
2022-12-16T12:18:47Z,42.805,6.029,13.3014,4.60063,2470.693,2022-12-16T14:24:38Z
2022-12-16T12:21:50Z,42.805,6.029,13.3011,4.60063,2470.74,2022-12-16T14:27:42Z
2022-12-16T12:24:53Z,42.805,6.029,13.3012,4.60065,2470.693,2022-12-16T14:30:45Z
2022-12-16T12:27:56Z,42.805,6.029,13.3012,4.60062,2470.707,2022-12-16T14:33:48Z
2022-12-16T12:30:59Z,42.805,6.029,13.3006,4.60063,2470.693,2022-12-16T14:36:51Z
2022-12-16T12:34:02Z,42.805,6.029,13.3013,4.60062,2470.74,2022-12-16T14:39:54Z
2022-12-16T12:37:05Z,42.805,6.029,13.3011,4.60064,2470.717,2022-12-16T14:42:57Z
2022-12-16T12:40:09Z,42.805,6.029,13.3018,4.60063,2470.717,2022-12-16T14:46:00Z
2022-12-16T12:43:12Z,42.805,6.029,13.3011,4.60062,2470.717,2022-12-16T14:49:03Z
2022-12-16T12:46:15Z,42.805,6.029,13.3014,4.60062,2470.693,2022-12-16T14:52:06Z
2022-12-16T12:49:18Z,42.805,6.029,13.3012,4.60062,2470.717,2022-12-16T14:55:09Z
2022-12-16T12:52:21Z,42.805,6.029,13.3013,4.60062,2470.74,2022-12-16T14:58:13Z
2022-12-16T12:55:24Z,42.805,6.029,13.3015,4.60062,2470.73,2022-12-16T15:01:16Z
2022-12-16T12:58:27Z,42.805,6.029,13.3013,4.60065,2470.754,2022-12-16T15:04:19Z
2022-12-16T13:01:30Z,42.805,6.029,13.3012,4.60062,2470.754,2022-12-16T15:07:22Z
2022-12-16T13:04:33Z,42.805,6.029,13.3011,4.60063,2470.74,2022-12-16T15:10:25Z
2022-12-16T13:07:36Z,42.805,6.029,13.3012,4.60062,2470.754,2022-12-16T15:13:28Z
2022-12-16T13:10:39Z,42.805,6.029,13.3011,4.60064,2470.717,2022-12-16T15:16:31Z
2022-12-16T13:13:43Z,42.805,6.029,13.3011,4.60065,2470.707,2022-12-16T15:19:34Z
2022-12-16T13:16:46Z,42.805,6.029,13.3013,4.60064,2470.693,2022-12-16T15:22:37Z
2022-12-16T13:19:49Z,42.805,6.029,13.3011,4.60062,2470.707,2022-12-16T15:25:40Z
2022-12-16T13:22:52Z,42.805,6.029,13.3011,4.60064,2470.754,2022-12-16T15:28:43Z
2022-12-16T13:25:55Z,42.805,6.029,13.3014,4.60062,2470.693,2022-12-16T15:31:47Z
2022-12-16T13:28:58Z,42.805,6.029,13.3015,4.60063,2470.703,2022-12-16T15:34:50Z
2022-12-16T13:32:01Z,42.805,6.029,13.3010,4.60063,2470.74,2022-12-16T15:37:53Z
2022-12-16T13:35:04Z,42.805,6.029,13.3015,4.60062,2470.73,2022-12-16T15:40:56Z
2022-12-16T13:38:07Z,42.805,6.029,13.3012,4.60067,2470.717,2022-12-16T15:43:59Z
2022-12-16T13:41:10Z,42.805,6.029,13.3011,4.60063,2470.707,2022-12-16T15:47:02Z
2022-12-16T13:44:14Z,42.805,6.029,13.3007,4.60063,2470.74,2022-12-16T15:50:05Z
2022-12-16T13:47:17Z,42.805,6.029,13.3016,4.60064,2470.693,2022-12-16T15:53:08Z
2022-12-16T13:50:20Z,42.805,6.029,13.3015,4.60064,2470.73,2022-12-16T15:56:11Z
2022-12-16T13:53:23Z,42.805,6.029,13.3011,4.60066,2470.717,2022-12-16T15:59:14Z
2022-12-16T13:56:26Z,42.805,6.029,13.3011,4.60063,2470.707,2022-12-16T16:02:17Z
2022-12-16T13:59:29Z,42.805,6.029,13.3011,4.60064,2470.693,2022-12-16T16:05:21Z
2022-12-16T14:02:32Z,42.805,6.029,13.3013,4.60062,2470.73,2022-12-16T16:08:24Z
2022-12-16T14:05:35Z,42.805,6.029,13.3014,4.60062,2470.717,2022-12-16T16:11:27Z
2022-12-16T14:08:38Z,42.805,6.029,13.3014,4.60064,2470.717,2022-12-16T16:14:30Z
2022-12-16T14:11:41Z,42.805,6.029,13.3014,4.60062,2470.73,2022-12-16T16:17:33Z
2022-12-16T14:14:44Z,42.805,6.029,13.3012,4.60063,2470.73,2022-12-16T16:20:36Z
2022-12-16T14:17:47Z,42.805,6.029,13.3011,4.60062,2470.679,2022-12-16T16:23:39Z
2022-12-16T14:20:51Z,42.805,6.029,13.3012,4.60062,2470.693,2022-12-16T16:26:42Z
2022-12-16T14:23:54Z,42.805,6.029,13.3013,4.60066,2470.73,2022-12-16T16:29:45Z
2022-12-16T14:26:57Z,42.805,6.029,13.3010,4.60064,2470.717,2022-12-16T16:32:48Z
2022-12-16T14:30:00Z,42.805,6.029,13.3014,4.60064,2470.717,2022-12-16T16:35:51Z
2022-12-16T14:33:03Z,42.805,6.029,13.3009,4.60062,2470.717,2022-12-16T16:38:55Z
2022-12-16T14:36:06Z,42.805,6.029,13.3011,4.60062,2470.693,2022-12-16T16:41:58Z
2022-12-16T14:39:09Z,42.805,6.029,13.3011,4.60062,2470.67,2022-12-16T16:45:01Z
2022-12-16T14:42:12Z,42.805,6.029,13.3014,4.60061,2470.717,2022-12-16T16:48:04Z
2022-12-16T14:45:15Z,42.805,6.029,13.3014,4.60061,2470.693,2022-12-16T16:51:07Z
2022-12-16T14:48:18Z,42.805,6.029,13.3013,4.60065,2470.693,2022-12-16T16:54:10Z
2022-12-16T14:51:21Z,42.805,6.029,13.3011,4.60063,2470.707,2022-12-16T16:57:13Z
2022-12-16T14:54:25Z,42.805,6.029,13.3012,4.60064,2470.73,2022-12-16T17:00:16Z
2022-12-16T14:57:28Z,42.805,6.029,13.3010,4.60062,2470.717,2022-12-16T17:03:19Z
2022-12-16T15:00:31Z,42.805,6.029,13.3008,4.60062,2470.707,2022-12-16T17:06:22Z